Muncie, IN

10:53 AM EDT on October 19, 2017 (GMT -0400)
Delaware County-Johnson

Weather History for KMIE - November, 2013

Change the Weather History Date:

Wednesday, November 27, 2013

  Actual Average Record
Temperature  
Mean Temperature 25 °F 38 °F  
Max Temperature 29 °F 45 °F 65 °F (1990)
Min Temperature 20 °F 30 °F 12 °F (1991)
Degree Days  
Heating Degree Days 40 28  
Month to date heating degree days 675 586  
Since 1 July heating degree days 1147 1050  
Cooling Degree Days 0 0  
Month to date cooling degree days 0 0  
Year to date cooling degree days 973 955  
Moisture  
Dew Point 19 °F    
Average Humidity 76    
Maximum Humidity 88    
Minimum Humidity 63    
Precipitation  
Precipitation T in 0.12 in 1.25 in (1966)
Month to date precipitation 1.81 3.12  
Year to date precipitation 34.42 36.91  
Sea Level Pressure  
Sea Level Pressure 30.09 in    
Wind  
Wind Speed 12 mph (NW)    
Max Wind Speed 20 mph    
Max Gust Speed 26 mph    
Visibility 8 miles    
Events Snow    
T = Trace of Precipitation, MM = Missing Value Source: NWS Daily Summary

Daily Weather History Graph

Daily Weather History Graph

Search for Another Location

Airport or City:

Trip Planner

Search our weather history database for the weather conditions in past years. The results will help you decide how hot, cold, wet, or windy it might be!

Date:

Astronomy

Nov. 27, 2013 Rise Set
Actual Time 7:41 AM EST 5:17 PM EST
Civil Twilight 7:11 AM EST 5:47 PM EST
Nautical Twilight 6:37 AM EST 6:20 PM EST
Astronomical Twilight 6:04 AM EST 6:53 PM EST
Moon 1:41 AM EST (11/27) 1:54 PM EST (11/27)
Length of Visible Light 10h 36m
Length of Day
9h 36m
Waning Crescent, 32% of the Moon is Illuminated
Nov 27
Waning Crescent
Dec 2
New
Dec 9
First Quarter
Dec 17
Full
Dec 25
Last Quarter

Hourly Weather History & Observations

Time (EST) Temp. Windchill Dew Point Humidity Pressure Visibility Wind Dir Wind Speed Gust Speed Precip Events Conditions
12:53 AM 28.0 °F 17.5 °F 21.9 °F 78% 29.99 in 10.0 mi NNW 12.7 mph - N/A   Overcast
1:40 AM 28.0 °F 18.1 °F 21.9 °F 78% 29.96 in 10.0 mi NNW 11.5 mph - N/A   Overcast
1:53 AM 27.0 °F 16.7 °F 21.9 °F 81% 29.99 in 10.0 mi NNW 11.5 mph - N/A   Mostly Cloudy
2:48 AM 26.6 °F 15.7 °F 21.2 °F 80% 29.98 in 10.0 mi NW 12.7 mph - N/A   Mostly Cloudy
2:53 AM 27.0 °F 16.1 °F 21.9 °F 81% 29.99 in 10.0 mi NW 12.7 mph - N/A   Mostly Cloudy
3:53 AM 27.0 °F 16.7 °F 23.0 °F 85% 29.99 in 10.0 mi NW 11.5 mph - N/A   Overcast
4:01 AM 26.1 °F 14.0 °F 21.9 °F 84% 29.97 in 10.0 mi NW 15.0 mph - N/A   Overcast
4:13 AM 26.1 °F 14.5 °F 21.9 °F 84% 29.97 in 10.0 mi NW 13.8 mph - N/A   Overcast
4:37 AM 26.1 °F 12.7 °F 21.0 °F 81% 29.98 in 10.0 mi NW 18.4 mph - N/A   Overcast
4:53 AM 25.0 °F 13.1 °F 21.0 °F 85% 30.01 in 10.0 mi NW 13.8 mph - N/A   Overcast
5:10 AM 25.0 °F 13.6 °F 21.0 °F 85% 29.99 in 10.0 mi NW 12.7 mph - N/A   Overcast
5:53 AM 25.0 °F 13.1 °F 21.0 °F 85% 30.03 in 10.0 mi NW 13.8 mph - N/A   Overcast
6:34 AM 25.0 °F 13.6 °F 21.0 °F 85% 30.02 in 10.0 mi NW 12.7 mph - N/A   Overcast
6:44 AM 25.0 °F 12.6 °F 21.0 °F 85% 30.02 in 9.0 mi North 15.0 mph - N/A   Overcast
6:53 AM 25.0 °F 13.1 °F 19.0 °F 78% 30.05 in 10.0 mi NNW 13.8 mph - N/A   Overcast
7:03 AM 25.0 °F 12.6 °F 19.0 °F 78% 30.03 in 10.0 mi NNW 15.0 mph - N/A   Overcast
7:18 AM 25.0 °F 12.6 °F 17.1 °F 72% 30.04 in 10.0 mi NNW 15.0 mph - N/A   Overcast
7:53 AM 24.1 °F 13.1 °F 17.1 °F 75% 30.07 in 10.0 mi NNW 11.5 mph - N/A   Overcast
8:29 AM 25.0 °F 12.2 °F 17.1 °F 72% 30.06 in 10.0 mi NNW 16.1 mph - N/A   Overcast
8:53 AM 25.0 °F 12.6 °F 17.1 °F 72% 30.09 in 10.0 mi NNW 15.0 mph - N/A   Overcast
9:06 AM 25.0 °F 13.6 °F 17.1 °F 72% 30.07 in 10.0 mi NNW 12.7 mph - N/A   Overcast
9:42 AM 24.1 °F 14.4 °F 19.0 °F 81% 30.08 in 2.5 mi NW 9.2 mph - 0.00 in Snow Light Snow
9:51 AM 24.8 °F 14.6 °F 19.4 °F 80% 30.08 in 1.2 mi NW 10.4 mph - 0.00 in Snow Light Snow
9:53 AM 24.1 °F 13.7 °F 19.0 °F 81% 30.10 in 1.2 mi NW 10.4 mph - 0.00 in Snow Light Snow
10:07 AM 24.1 °F 13.7 °F 19.9 °F 84% 30.08 in 1.0 mi NW 10.4 mph - 0.00 in Snow Light Snow
10:43 AM 23.0 °F 12.4 °F 19.9 °F 88% 30.08 in 1.2 mi WNW 10.4 mph - 0.00 in Snow Light Snow
10:53 AM 24.1 °F 13.1 °F 19.9 °F 84% 30.11 in 2.0 mi NW 11.5 mph - 0.00 in Snow Light Snow
11:03 AM 24.1 °F 14.4 °F 19.9 °F 84% 30.08 in 5.0 mi NW 9.2 mph - 0.00 in   Overcast
11:51 AM 24.8 °F 14.0 °F 19.4 °F 80% 30.07 in 9.0 mi NW 11.5 mph - 0.00 in   Overcast
11:53 AM 24.1 °F 12.5 °F 19.0 °F 81% 30.10 in 9.0 mi NW 12.7 mph - 0.00 in   Overcast
12:22 PM 25.0 °F 13.1 °F 19.0 °F 78% 30.07 in 10.0 mi WNW 13.8 mph - N/A   Overcast
12:53 PM 25.0 °F 13.6 °F 19.0 °F 78% 30.09 in 10.0 mi WNW 12.7 mph - N/A   Overcast
1:11 PM 24.1 °F 11.0 °F 19.0 °F 81% 30.07 in 10.0 mi WNW 16.1 mph - N/A   Overcast
1:25 PM 24.1 °F 9.8 °F 19.0 °F 81% 30.08 in 10.0 mi WNW 19.6 mph 23.0 mph N/A   Overcast
1:53 PM 25.0 °F 12.2 °F 18.0 °F 75% 30.10 in 10.0 mi WNW 16.1 mph - N/A   Mostly Cloudy
2:15 PM 26.1 °F 12.3 °F 18.0 °F 71% 30.08 in 10.0 mi NW 19.6 mph - N/A   Scattered Clouds
2:30 PM 26.1 °F 14.0 °F 18.0 °F 71% 30.08 in 10.0 mi WNW 15.0 mph - N/A   Mostly Cloudy
2:39 PM 26.1 °F 13.6 °F 18.0 °F 71% 30.09 in 10.0 mi WNW 16.1 mph - N/A   Overcast
2:53 PM 26.1 °F 14.5 °F 18.0 °F 71% 30.11 in 10.0 mi WNW 13.8 mph - N/A   Overcast
3:53 PM 25.0 °F 12.6 °F 17.1 °F 72% 30.14 in 9.0 mi WNW 15.0 mph - N/A   Overcast
4:45 PM 25.0 °F 13.1 °F 17.1 °F 72% 30.14 in 2.5 mi WNW 13.8 mph - 0.00 in Snow Light Snow
4:53 PM 24.1 °F 12.0 °F 17.1 °F 75% 30.17 in 2.5 mi West 13.8 mph - 0.00 in Snow Light Snow
5:08 PM 24.1 °F 13.1 °F 18.0 °F 77% 30.15 in 4.0 mi West 11.5 mph - 0.00 in Snow Light Snow
5:53 PM 25.0 °F 14.8 °F 17.1 °F 72% 30.19 in 6.0 mi West 10.4 mph - 0.00 in Snow Light Snow
6:05 PM 25.0 °F 14.8 °F 17.1 °F 72% 30.17 in 8.0 mi West 10.4 mph - 0.00 in Snow Light Snow
6:50 PM 26.6 °F 17.5 °F 17.6 °F 69% 30.18 in 10.0 mi WNW 9.2 mph - 0.00 in   Overcast
6:53 PM 26.1 °F 15.0 °F 17.1 °F 69% 30.20 in 10.0 mi WNW 12.7 mph - 0.00 in   Overcast
7:53 PM 26.1 °F 15.0 °F 15.1 °F 63% 30.23 in 10.0 mi WNW 12.7 mph - N/A   Overcast
8:53 PM 25.0 °F 14.2 °F 15.1 °F 66% 30.24 in 10.0 mi WNW 11.5 mph - N/A   Overcast
9:53 PM 23.0 °F 13.1 °F 14.0 °F 68% 30.25 in 10.0 mi West 9.2 mph - N/A   Overcast
10:53 PM 21.9 °F 13.4 °F 14.0 °F 72% 30.27 in 10.0 mi WSW 6.9 mph - N/A   Overcast
11:53 PM 19.9 °F 12.1 °F 12.9 °F 74% 30.29 in 10.0 mi West 5.8 mph - N/A   Scattered Clouds